When you browse on this site, cookies collect data to enhance your experience and personalize the content and advertising you see.
Visit our Privacy Policy to learn more. By continuing to use the site, you agree to this use of cookies and data.
  • în România
  • Lista ţărilor
  • Pe 7 zile
  • Temperatura apei
  • Hartă satelitară
  • Meteo pe hartă
  • Widget-uri
  • user-avatar
    Intrare

    Meteo pe oră la Andora

    Astăzi, 22 Martie, Vineri

    Timp Temperatura Precipitaţii Vânt Presiune Umiditate
    00:00 0°C° 0 mm 1 m/s 627 mmHg 55%
    01:00 0°C° 0 mm 1 m/s 627 mmHg 54%
    02:00 0°C° 0 mm 1 m/s 627 mmHg 52%
    03:00 0°C° 0 mm 1 m/s 627 mmHg 51%
    04:00 0°C° 0 mm 1 m/s 627 mmHg 51%
    05:00 0°C° 0 mm 1 m/s 627 mmHg 51%
    06:00 0°C° 0 mm 1 m/s 627 mmHg 52%
    07:00 +3°C° 0 mm 1 m/s 628 mmHg 48%
    08:00 +6°C° 0 mm 1 m/s 630 mmHg 45%
    09:00 +9°C° 0 mm 1 m/s 631 mmHg 41%
    10:00 +10°C° 0 mm 1 m/s 631 mmHg 40%
    11:00 +11°C° 0 mm 1 m/s 632 mmHg 38%
    12:00 +12°C° 0 mm 1 m/s 632 mmHg 37%
    13:00 +12°C° 0.1 mm 1 m/s 631 mmHg 40%
    14:00 +11°C° 0.1 mm 1 m/s 631 mmHg 43%
    15:00 +10°C° 0.1 mm 1 m/s 630 mmHg 46%
    16:00 +9°C° 0.1 mm 1 m/s 630 mmHg 52%
    17:00 +6°C° 0.1 mm 0 m/s 629 mmHg 58%
    18:00 +5°C° 0.1 mm 0 m/s 628 mmHg 65%
    19:00 +4°C° 0 mm 0 m/s 628 mmHg 68%
    20:00 +3°C° 0 mm 0 m/s 628 mmHg 71%
    21:00 +3°C° 0 mm 1 m/s 628 mmHg 75%
    22:00 +3°C° 0 mm 1 m/s 628 mmHg 75%
    23:00 +3°C° 0 mm 1 m/s 628 mmHg 75%

    Mâine, 23 Martie, Sâmbătă

    Timp Temperatura Precipitaţii Vânt Presiune Umiditate
    00:00 +2°C° 0 mm 1 m/s 628 mmHg 75%
    01:00 +2°C° 0 mm 1 m/s 628 mmHg 75%
    02:00 +2°C° 0 mm 1 m/s 628 mmHg 75%
    03:00 +2°C° 0 mm 1 m/s 627 mmHg 74%
    04:00 +2°C° 0 mm 1 m/s 627 mmHg 74%
    05:00 +2°C° 0 mm 1 m/s 627 mmHg 73%
    06:00 +2°C° 0 mm 1 m/s 627 mmHg 72%
    07:00 +5°C° 0 mm 1 m/s 629 mmHg 63%
    08:00 +8°C° 0 mm 1 m/s 630 mmHg 53%
    09:00 +9°C° 0 mm 0 m/s 631 mmHg 43%
    10:00 +12°C° 0 mm 1 m/s 631 mmHg 40%
    11:00 +13°C° 0 mm 1 m/s 631 mmHg 37%
    12:00 +14°C° 0 mm 1 m/s 632 mmHg 34%
    13:00 +14°C° 0 mm 1 m/s 631 mmHg 36%
    14:00 +13°C° 0 mm 1 m/s 631 mmHg 37%
    15:00 +13°C° 0 mm 1 m/s 630 mmHg 38%
    16:00 +11°C° 0 mm 1 m/s 629 mmHg 46%
    17:00 +10°C° 0 mm 1 m/s 629 mmHg 54%
    18:00 +8°C° 0 mm 1 m/s 628 mmHg 62%
    19:00 +7°C° 0 mm 1 m/s 628 mmHg 65%
    20:00 +6°C° 0 mm 1 m/s 628 mmHg 69%
    21:00 +5°C° 0 mm 1 m/s 628 mmHg 73%
    22:00 +5°C° 0 mm 1 m/s 628 mmHg 73%
    23:00 +4°C° 0 mm 1 m/s 627 mmHg 74%

    Poimâine, 24 Martie, Duminică

    Timp Temperatura Precipitaţii Vânt Presiune Umiditate
    00:00 +4°C° 0 mm 1 m/s 627 mmHg 74%
    01:00 +4°C° 0 mm 1 m/s 627 mmHg 72%
    02:00 +4°C° 0 mm 1 m/s 627 mmHg 70%
    03:00 +4°C° 0 mm 1 m/s 627 mmHg 68%
    04:00 +3°C° 0 mm 1 m/s 627 mmHg 67%
    05:00 +3°C° 0 mm 1 m/s 627 mmHg 66%
    06:00 +3°C° 0 mm 1 m/s 626 mmHg 65%
    07:00 +6°C° 0 mm 1 m/s 628 mmHg 57%
    08:00 +8°C° 0 mm 1 m/s 629 mmHg 49%
    09:00 +11°C° 0 mm 1 m/s 630 mmHg 41%
    10:00 +12°C° 0 mm 1 m/s 631 mmHg 39%
    11:00 +13°C° 0 mm 1 m/s 631 mmHg 38%
    12:00 +14°C° 0 mm 1 m/s 631 mmHg 36%
    13:00 +14°C° 0 mm 1 m/s 630 mmHg 39%
    14:00 +13°C° 0 mm 1 m/s 630 mmHg 41%
    15:00 +13°C° 0 mm 1 m/s 629 mmHg 44%
    16:00 +11°C° 0.2 mm 1 m/s 629 mmHg 53%
    17:00 +9°C° 0.2 mm 1 m/s 628 mmHg 61%
    18:00 +8°C° 0.2 mm 1 m/s 627 mmHg 70%
    19:00 +7°C° 0 mm 1 m/s 627 mmHg 75%
    20:00 +6°C° 0 mm 1 m/s 627 mmHg 80%
    21:00 +5°C° 0 mm 1 m/s 627 mmHg 85%
    22:00 +4°C° 0 mm 1 m/s 627 mmHg 86%
    23:00 +4°C° 0 mm 1 m/s 627 mmHg 87%

    25 Martie, Luni

    Timp Temperatura Precipitaţii Vânt Presiune Umiditate
    00:00 +4°C° 0 mm 1 m/s 627 mmHg 89%
    01:00 +4°C° 0 mm 1 m/s 626 mmHg 89%
    02:00 +4°C° 0 mm 1 m/s 626 mmHg 90%
    03:00 +4°C° 0 mm 1 m/s 626 mmHg 91%
    04:00 +3°C° 0 mm 1 m/s 626 mmHg 91%
    05:00 +3°C° 0 mm 1 m/s 626 mmHg 92%
    06:00 +3°C° 0 mm 1 m/s 626 mmHg 92%
    07:00 +5°C° 0 mm 1 m/s 627 mmHg 81%
    08:00 +8°C° 0 mm 1 m/s 628 mmHg 70%
    09:00 +10°C° 0 mm 1 m/s 629 mmHg 59%
    10:00 +11°C° 0.1 mm 1 m/s 629 mmHg 57%
    11:00 +11°C° 0.1 mm 1 m/s 629 mmHg 55%
    12:00 +12°C° 0.1 mm 1 m/s 629 mmHg 53%
    13:00 +11°C° 0.4 mm 1 m/s 628 mmHg 57%
    14:00 +10°C° 0.4 mm 1 m/s 627 mmHg 62%
    15:00 +9°C° 0.4 mm 1 m/s 627 mmHg 67%
    16:00 +9°C° 0.3 mm 1 m/s 626 mmHg 72%
    17:00 +8°C° 0.3 mm 1 m/s 626 mmHg 77%
    18:00 +7°C° 0.3 mm 1 m/s 626 mmHg 82%
    19:00 +6°C° 0 mm 1 m/s 626 mmHg 85%
    20:00 +6°C° 0 mm 1 m/s 626 mmHg 88%
    21:00 +5°C° 0 mm 1 m/s 626 mmHg 91%
    22:00 +4°C° 0 mm 1 m/s 626 mmHg 91%
    23:00 +4°C° 0 mm 1 m/s 625 mmHg 91%

    26 Martie, Marţi

    Timp Temperatura Precipitaţii Vânt Presiune Umiditate
    00:00 +3°C° 0 mm 1 m/s 625 mmHg 91%
    01:00 +2°C° 0 mm 1 m/s 625 mmHg 90%
    02:00 +1°C° 0 mm 2 m/s 625 mmHg 88%
    03:00 +1°C° 0 mm 2 m/s 625 mmHg 86%
    04:00 +1°C° 0 mm 2 m/s 625 mmHg 85%
    05:00 -1°C° 0 mm 2 m/s 625 mmHg 85%
    06:00 -1°C° 0 mm 2 m/s 625 mmHg 84%
    07:00 +3°C° 0 mm 2 m/s 626 mmHg 68%
    08:00 +7°C° 0 mm 1 m/s 627 mmHg 52%
    09:00 +10°C° 0 mm 1 m/s 629 mmHg 36%
    10:00 +12°C° 0 mm 1 m/s 629 mmHg 34%
    11:00 +13°C° 0 mm 1 m/s 630 mmHg 31%
    12:00 +15°C° 0 mm 1 m/s 631 mmHg 28%
    13:00 +15°C° 0 mm 1 m/s 631 mmHg 31%
    14:00 +14°C° 0 mm 1 m/s 630 mmHg 34%
    15:00 +14°C° 0 mm 1 m/s 630 mmHg 37%
    16:00 +12°C° 0 mm 1 m/s 629 mmHg 46%
    17:00 +10°C° 0 mm 1 m/s 629 mmHg 55%
    18:00 +8°C° 0 mm 1 m/s 628 mmHg 65%
    19:00 +6°C° 0 mm 1 m/s 628 mmHg 73%
    20:00 +4°C° 0 mm 2 m/s 629 mmHg 81%
    21:00 +3°C° 0 mm 2 m/s 629 mmHg 89%
    22:00 +3°C° 0 mm 2 m/s 629 mmHg 89%
    23:00 +2°C° 0 mm 2 m/s 629 mmHg 90%

    27 Martie, Miercuri

    Timp Temperatura Precipitaţii Vânt Presiune Umiditate
    00:00 +3°C° 0 mm 1 m/s 628 mmHg 90%
    01:00 +3°C° 0 mm 1 m/s 628 mmHg 84%
    02:00 +2°C° 0 mm 1 m/s 628 mmHg 78%
    03:00 +2°C° 0 mm 1 m/s 628 mmHg 72%
    04:00 +2°C° 0 mm 1 m/s 628 mmHg 68%
    05:00 +2°C° 0 mm 1 m/s 628 mmHg 64%
    06:00 +2°C° 0 mm 1 m/s 628 mmHg 61%
    07:00 +3°C° 0 mm 2 m/s 629 mmHg 52%
    08:00 +6°C° 0 mm 2 m/s 631 mmHg 43%
    09:00 +9°C° 0 mm 2 m/s 632 mmHg 35%
    10:00 +10°C° 0 mm 2 m/s 632 mmHg 34%
    11:00 +12°C° 0 mm 2 m/s 632 mmHg 32%
    12:00 +13°C° 0 mm 2 m/s 633 mmHg 31%
    13:00 +13°C° 0 mm 2 m/s 632 mmHg 32%
    14:00 +13°C° 0 mm 2 m/s 632 mmHg 33%
    15:00 +13°C° 0 mm 2 m/s 632 mmHg 33%
    16:00 +10°C° 0 mm 2 m/s 631 mmHg 40%
    17:00 +8°C° 0 mm 2 m/s 630 mmHg 46%
    18:00 +6°C° 0 mm 2 m/s 630 mmHg 53%
    19:00 +6°C° 0 mm 1 m/s 629 mmHg 56%
    20:00 +4°C° 0 mm 1 m/s 629 mmHg 59%
    21:00 +3°C° 0 mm 1 m/s 629 mmHg 61%
    22:00 +3°C° 0 mm 1 m/s 629 mmHg 61%
    23:00 +3°C° 0 mm 1 m/s 629 mmHg 60%
    Arată mai mult